User: anonymous   Login
Location: Unspecified
(0.0000°N, 0.0000°E)
Time: 04:35:59
(UTC+00:00)
Language:

N. Korean satellite - Orbit

View from above orbital plane
View from above orbital plane
View from above satellite
View from above satellite

Ground track
Ground track

The orbit data is extracted from the following two-line orbital elements,

1 39026U 12072A   17324.56019597 +.00002421 +00000-0 +94663-4 0  9992
2 39026 097.2171 337.0600 0039493 345.7312 014.2808 15.26090610273770
Epoch (UTC): 20 November 2017 13:26:40
Eccentricity: 0.0039493
inclination: 97.2171°
perigee height: 460 km
apogee height: 514 km
right ascension of ascending node: 337.0600°
argument of perigee: 345.7312°
revolutions per day: 15.26090610
mean anomaly at epoch: 14.2808°
orbit number at epoch: 27377

The dashed part of the orbit path shows where the satellite is in the earth's shadow,  

DLR